Temp
52 43 40 50 56 58 58 52 53 57 59 56 56 58 62 66 66 67 69 71 73 74 79 78 77 78 79 81 81 82 82 84 84 83 83 74 69 69 71 75 82 83 83 82
45 40 48 58 57 56 55 52 50 54 57 56 57 56 62 64 64 67 68 69 71 73 73 74 73 74 75 77 79 80 81 82 83 83 83 80 76 72 72 72 72 75 80 81
43 46 49 50 52 50 53 51 51 49 52 56 54 51 55 61 61 62 63 67 67 67 68 70 71 71 72 73 72 74 76 78 80 81 82 82 80 78 76 74 73 73 73 76
46 50 45 46 48 52 47 57 55 49 46 43 55 47 53 56 55 59 62 64 65 66 68 68 69 69 69 68 69 71 72 73 75 76 76 76 77 75 77 78 79 78 78 74
37 45 45 44 48 55 47 56 53 51 48 46 47 45 51 55 51 56 60 62 63 66 66 67 67 67 69 67 67 70 72 73 73 73 74 74 74 77 78 78 77 78 79 77
37 45 44 44 46 53 54 51 50 50 46 36 48 47 46 50 54 56 60 62 63 64 66 67 68 68 69 68 68 69 70 72 72 71 72 71 71 74 74 75 74 75 75 74
34 35 41 44 40 46 48 46 33 31 32 36 46 43 51 57 60 59 59 61 63 65 65 65 65 65 66 66 67 68 69 69 71 71 71 71 71 71 71 72 73 73 73 72
33 31 34 41 40 37 43 44 38 31 36 40 42 38 50 58 61 61 60 61 62 63 64 63 64 64 65 65 65 66 66 67 68 68 69 71 71 70 70 71 72 73 74 74
37 33 40 44 48 45 37 35 48 39 41 40 44 48 51 54 56 57 59 59 59 61 61 62 63 64 63 63 62 63 64 65 66 65 67 67 68 66 66 67 69 70 71 71
47 34 43 47 51 51 48 52 39 37 30 33 41 45 47 47 50 55 57 58 59 60 61 61 62 61 61 61 61 62 62 62 63 63 64 64 63 62 62 62 62 63 65 67
52 45 40 46 43 44 44 42 43 44 42 37 39 44 57 53 55 55 57 58 58 59 59 59 59 59 59 60 59 59 60 60 60 61 62 62 61 61 61 60 60 60 59 60
51 45 36 40 47 50 50 47 48 39 38 39 37 42 60 58 57 58 57 57 58 57 57 57 57 57 58 57 57 57 58 58 58 59 60 59 58 58 57 57 57 57 56 57
52 42 32 35 42 47 42 46 47 45 41 33 37 43 60 61 58 58 57 58 58 57 56 57 57 56 56 56 55 55 55 55 56 56 56 54 53 52 51 51 52 52 51 51
53 46 41 38 39 44 37 43 45 37 33 40 41 46 51 54 55 58 58 58 57 56 54 55 55 55 55 54 54 54 54 54 54 53 52 50 49 48 47 46 46 46 46 45
52 41 43 43 43 43 41 41 42 33 39 35 44 45 53 56 57 58 58 56 52 52 52 52 53 54 53 53 53 53 52 52 52 50 49 48 48 46 45 45 44 44 44 43
50 35 36 34 41 41 37 42 43 41 41 42 45 44 57 60 60 58 57 52 50 49 49 50 51 51 51 51 50 51 50 50 51 48 47 47 46 44 42 41 41 41 41 40
47 39 36 35 39 39 34 40 42 43 45 44 37 49 56 54 55 55 54 52 50 50 49 50 50 50 50 49 50 48 49 48 46 44 45 44 43 41 40 40 39 37 36 36
46 42 39 36 37 28 42 49 49 45 47 49 50 53 56 56 56 52 54 53 52 50 49 48 50 50 50 50 50 50 46 42 40 40 39 40 40 39 38 37 36 36 36 35
51 46 37 33 36 43 47 45 44 43 45 51 50 54 56 57 52 52 54 52 52 51 51 50 50 48 49 49 49 48 45 42 40 38 38 38 38 36 36 34 34 33 33 33
47 47 40 34 29 31 44 50 54 53 41 53 54 54 54 53 46 51 52 51 50 50 50 49 49 47 46 46 48 45 42 38 37 37 37 37 37 36 34 33 33 34 34 33
39 39 35 35 32 41 52 52 53 38 41 54 54 54 55 51 53 51 51 49 50 49 48 48 47 44 45 45 43 37 37 36 36 37 37 37 36 35 35 35 35 37 39 39
39 37 35 37 31 30 53 49 45 49 55 55 55 55 53 54 47 47 47 46 46 45 45 47 45 43 43 41 39 36 35 37 37 38 38 38 40 41 41 41 42 43 43 41
39 46 43 42 43 53 55 54 57 56 54 55 54 55 54 49 46 47 45 43 44 45 45 46 42 38 39 40 39 36 36 39 40 41 40 42 44 44 43 41 41 42 43 41
49 54 46 46 52 53 55 57 56 55 53 55 55 54 54 53 50 47 45 42 42 43 43 44 41 38 37 40 40 39 41 43 44 43 43 43 42 42 43 42 41 41 41 40
49 51 48 48 53 55 56 58 57 53 55 54 55 54 53 53 52 49 46 43 42 42 44 45 42 40 38 39 40 43 44 45 44 43 43 42 42 42 41 40 40 39 38 38
53 49 46 46 55 55 54 55 52 52 53 53 53 53 52 53 53 52 49 47 44 42 43 43 42 41 39 39 42 44 45 45 44 42 41 41 41 41 41 39 37 37 37 37
MSLP
1011.16 1011.81 1010.82 1010.08 1009.45 1008.91 1008.47 1008.98 1008.66 1009.05 1009.87 1010.16 1009.93 1009.75 1009.43 1009.42 1009.63 1009.41 1009.15 1008.96 1008.90 1008.87 1009.03 1009.48 1010.13 1010.36 1010.31 1010.28 1010.36 1010.35 1010.40 1010.53 1010.89 1010.90 1010.92 1012.14 1012.92 1013.32 1013.46 1013.25 1012.50 1012.57 1012.86 1013.20
1011.63 1011.01 1011.03 1010.35 1009.83 1009.22 1008.74 1008.51 1009.13 1009.70 1010.14 1010.61 1009.87 1009.62 1009.44 1009.49 1009.45 1009.39 1009.24 1009.13 1009.09 1009.15 1009.56 1009.99 1010.45 1010.54 1010.48 1010.41 1010.35 1010.29 1010.18 1010.30 1010.45 1010.61 1010.50 1010.84 1011.91 1012.46 1012.75 1012.84 1012.95 1012.84 1012.53 1012.59
1010.99 1011.36 1011.63 1010.95 1009.98 1009.64 1009.16 1008.91 1009.09 1009.83 1010.71 1010.82 1010.25 1009.70 1009.43 1009.55 1010.03 1010.25 1010.29 1010.13 1010.10 1010.19 1010.24 1010.43 1010.52 1010.72 1010.76 1010.87 1011.02 1010.86 1010.69 1010.55 1010.42 1010.44 1010.40 1010.47 1010.79 1011.23 1011.50 1011.88 1012.23 1012.45 1012.68 1012.65
1011.81 1011.92 1012.10 1011.44 1010.58 1009.97 1009.43 1009.35 1009.42 1010.42 1010.75 1010.26 1010.34 1008.42 1008.69 1009.49 1010.16 1010.31 1010.31 1010.29 1010.52 1010.72 1010.83 1010.98 1011.03 1011.24 1011.34 1011.60 1011.60 1011.39 1011.23 1011.11 1010.95 1010.98 1010.86 1010.63 1010.36 1010.45 1010.70 1010.89 1011.09 1011.33 1011.51 1012.05
1013.17 1012.65 1012.67 1011.84 1011.05 1010.31 1010.49 1010.32 1010.56 1010.77 1010.73 1010.57 1010.34 1009.70 1008.68 1009.44 1009.86 1010.10 1010.38 1010.79 1011.09 1011.15 1011.17 1011.25 1011.47 1011.59 1011.71 1011.91 1011.81 1011.53 1011.20 1011.15 1011.14 1011.08 1011.01 1010.85 1010.60 1010.33 1010.30 1010.57 1010.69 1010.72 1010.75 1011.01
1014.22 1014.15 1013.75 1013.10 1012.37 1011.27 1011.53 1011.41 1011.59 1011.42 1011.30 1010.77 1009.51 1009.46 1008.62 1008.62 1009.17 1010.05 1010.63 1010.93 1011.16 1011.25 1011.28 1011.42 1011.71 1011.78 1011.78 1011.99 1012.00 1011.83 1011.52 1011.27 1011.29 1011.22 1011.10 1010.95 1010.81 1010.47 1010.22 1010.32 1010.43 1010.50 1010.60 1010.81
1014.66 1014.81 1014.66 1014.05 1013.39 1013.16 1012.21 1011.71 1011.96 1012.02 1011.48 1010.24 1010.05 1009.88 1007.95 1008.35 1008.92 1010.01 1010.48 1010.98 1011.26 1011.35 1011.50 1011.71 1011.88 1012.02 1012.12 1012.26 1012.21 1012.03 1011.81 1011.55 1011.43 1011.30 1011.13 1011.07 1011.00 1010.90 1010.64 1010.43 1010.32 1010.33 1010.35 1010.59
1013.55 1014.92 1014.93 1014.32 1013.92 1013.46 1012.82 1012.24 1011.27 1010.41 1009.86 1009.83 1010.79 1009.33 1008.10 1009.12 1009.60 1010.35 1010.99 1011.36 1011.53 1011.64 1011.81 1012.01 1012.22 1012.37 1012.41 1012.51 1012.52 1012.40 1012.19 1011.88 1011.78 1011.65 1011.50 1011.22 1011.18 1011.25 1011.06 1010.80 1010.64 1010.38 1010.23 1010.24
1011.96 1013.59 1014.13 1013.78 1013.48 1013.45 1013.62 1012.88 1011.96 1011.05 1010.47 1009.87 1009.15 1009.02 1009.71 1009.95 1009.99 1010.63 1010.92 1011.29 1011.67 1011.92 1012.10 1012.32 1012.48 1012.67 1012.84 1012.92 1013.01 1012.87 1012.56 1012.27 1012.17 1012.20 1011.91 1011.75 1011.68 1011.85 1011.70 1011.49 1011.27 1011.08 1010.93 1010.78
1010.80 1012.27 1013.39 1013.30 1013.00 1012.71 1012.03 1011.99 1011.98 1011.73 1010.64 1009.20 1008.46 1007.76 1007.42 1009.27 1009.94 1010.46 1010.79 1011.20 1011.68 1012.11 1012.35 1012.60 1012.74 1013.11 1013.31 1013.45 1013.45 1013.28 1013.16 1012.94 1012.82 1012.72 1012.45 1012.38 1012.53 1012.64 1012.51 1012.27 1012.01 1011.87 1011.70 1011.45
1010.01 1010.85 1012.79 1012.92 1012.49 1011.98 1012.27 1011.91 1011.84 1011.51 1010.81 1009.53 1007.97 1007.43 1007.11 1008.35 1009.44 1010.18 1010.79 1011.38 1011.83 1012.31 1012.64 1012.89 1013.15 1013.45 1013.71 1013.86 1013.86 1013.76 1013.65 1013.46 1013.28 1013.15 1012.84 1012.74 1012.77 1012.81 1012.58 1012.56 1012.60 1012.57 1012.61 1012.34
1010.29 1011.06 1011.86 1012.23 1012.61 1012.44 1011.84 1011.53 1011.49 1011.35 1011.00 1010.72 1009.65 1008.41 1007.97 1008.58 1009.45 1010.28 1010.78 1011.52 1012.06 1012.62 1012.92 1013.21 1013.59 1013.79 1014.08 1014.25 1014.16 1014.16 1014.02 1013.90 1013.90 1013.62 1013.43 1013.42 1013.62 1013.41 1013.36 1013.29 1013.28 1013.48 1013.05 1012.98
1010.34 1011.09 1011.85 1012.36 1012.78 1012.56 1012.43 1012.14 1012.07 1012.12 1011.94 1011.23 1009.89 1008.57 1008.34 1008.63 1009.53 1010.33 1010.67 1011.35 1011.97 1012.59 1013.01 1013.28 1013.64 1014.00 1014.29 1014.51 1014.52 1014.56 1014.54 1014.53 1014.54 1014.32 1014.31 1014.40 1014.48 1014.42 1014.35 1014.54 1014.53 1014.30 1014.20 1014.08
1010.79 1010.95 1011.22 1011.18 1011.57 1011.72 1012.27 1012.12 1012.45 1012.83 1012.62 1011.20 1010.14 1009.04 1008.96 1009.20 1009.66 1010.01 1010.47 1011.52 1012.04 1012.69 1013.18 1013.52 1013.86 1014.25 1014.53 1014.77 1014.98 1014.99 1015.04 1015.20 1014.99 1015.13 1015.17 1015.25 1015.29 1015.36 1015.38 1015.48 1015.49 1015.43 1015.27 1015.09
1010.98 1011.34 1011.91 1012.07 1012.17 1012.21 1012.35 1012.37 1012.58 1012.84 1012.27 1011.54 1010.33 1009.42 1008.58 1008.90 1009.39 1009.72 1010.47 1011.57 1012.36 1012.83 1013.44 1013.98 1014.22 1014.47 1014.87 1015.04 1015.19 1015.38 1015.63 1015.81 1015.79 1015.74 1015.91 1016.21 1016.14 1016.23 1016.24 1016.28 1016.04 1015.99 1015.98 1016.02
1011.27 1011.94 1012.60 1012.59 1012.52 1012.48 1012.34 1012.08 1012.03 1012.20 1012.01 1011.33 1010.60 1009.70 1009.07 1009.04 1009.39 1009.85 1010.53 1011.83 1012.78 1013.39 1013.92 1014.42 1014.65 1014.92 1015.23 1015.40 1015.72 1015.96 1016.30 1016.33 1016.23 1016.40 1016.64 1016.63 1016.75 1016.64 1016.87 1017.08 1017.04 1016.93 1016.88 1017.09
1011.29 1012.05 1012.59 1012.24 1012.52 1012.25 1011.57 1010.60 1010.88 1011.02 1010.92 1010.74 1010.29 1009.29 1009.30 1009.40 1009.84 1010.46 1011.29 1012.18 1012.80 1013.49 1014.03 1014.42 1014.85 1015.26 1015.63 1015.90 1016.25 1016.50 1016.81 1017.09 1017.00 1017.16 1017.21 1017.20 1017.38 1017.25 1017.74 1017.77 1017.71 1018.07 1018.10 1018.19
1011.28 1011.94 1012.39 1012.18 1012.15 1011.28 1010.10 1009.91 1009.81 1010.01 1009.96 1010.09 1009.65 1009.34 1009.40 1009.72 1010.24 1011.18 1011.70 1012.23 1012.88 1013.56 1014.16 1014.88 1015.24 1015.67 1015.97 1016.21 1016.55 1016.85 1017.52 1017.81 1017.79 1017.83 1017.87 1017.85 1018.00 1017.89 1018.63 1018.89 1018.77 1018.92 1019.06 1019.05
1011.42 1011.68 1012.10 1012.00 1011.10 1009.77 1008.89 1009.51 1009.55 1009.36 1009.11 1009.17 1009.18 1009.31 1009.43 1009.84 1010.89 1011.32 1012.00 1012.67 1013.12 1013.82 1014.55 1015.12 1015.72 1016.17 1016.33 1016.62 1016.88 1017.21 1017.72 1018.07 1018.27 1018.36 1018.50 1018.62 1018.75 1018.95 1019.39 1019.57 1019.69 1019.79 1019.77 1019.84
1011.82 1011.94 1012.12 1012.19 1011.36 1009.58 1008.94 1009.10 1009.18 1009.15 1008.72 1008.82 1008.94 1009.22 1009.51 1010.37 1010.74 1011.07 1012.22 1013.20 1013.97 1014.56 1015.00 1015.49 1016.03 1016.58 1016.84 1017.18 1017.18 1017.62 1018.15 1018.55 1018.90 1019.02 1019.07 1019.22 1019.41 1019.67 1020.01 1020.23 1020.29 1020.36 1020.36 1020.44
1011.40 1011.74 1011.75 1011.55 1011.04 1009.47 1008.68 1009.13 1009.27 1009.13 1009.44 1009.06 1009.27 1009.49 1009.80 1010.36 1010.94 1011.73 1012.75 1013.65 1014.34 1014.86 1015.40 1015.90 1016.33 1016.82 1017.17 1017.57 1017.97 1018.62 1018.79 1019.02 1019.47 1019.51 1019.57 1019.69 1019.97 1020.31 1020.56 1020.62 1020.62 1020.49 1020.32 1020.34
1010.34 1010.57 1010.79 1010.89 1010.66 1009.55 1008.98 1009.33 1009.22 1009.33 1009.18 1009.36 1009.47 1009.63 1010.00 1010.64 1011.75 1012.64 1013.43 1014.17 1014.79 1015.24 1015.85 1016.15 1016.60 1017.12 1017.67 1018.24 1018.61 1018.95 1019.10 1019.39 1019.53 1019.73 1019.75 1020.10 1020.11 1020.21 1020.35 1020.30 1020.18 1020.10 1020.05 1020.13
1009.65 1009.23 1009.35 1009.84 1009.07 1008.68 1008.78 1008.87 1009.03 1009.23 1009.43 1009.54 1009.68 1009.90 1010.40 1011.15 1012.02 1012.80 1013.63 1014.37 1014.85 1015.36 1016.02 1016.31 1016.91 1017.67 1018.14 1018.46 1018.81 1019.16 1019.49 1019.40 1019.27 1019.54 1019.79 1019.83 1019.87 1020.06 1020.24 1020.26 1020.26 1020.14 1020.07 1020.17
1008.97 1008.93 1009.11 1008.93 1008.02 1008.28 1008.51 1008.82 1009.19 1009.46 1009.69 1010.01 1010.22 1010.42 1010.68 1010.94 1011.75 1012.61 1013.55 1014.34 1014.91 1015.49 1016.11 1016.48 1017.07 1017.68 1018.17 1018.51 1018.87 1019.14 1019.28 1019.19 1019.06 1019.33 1019.56 1019.70 1019.91 1020.12 1020.26 1020.39 1020.40 1020.32 1020.41 1020.54
1008.78 1008.60 1008.53 1008.22 1007.96 1008.22 1008.34 1008.53 1009.13 1009.69 1009.75 1010.23 1010.46 1010.64 1010.75 1010.98 1011.34 1012.23 1013.07 1013.94 1014.65 1015.32 1015.91 1016.22 1016.78 1017.38 1017.98 1018.40 1018.68 1018.80 1018.84 1018.95 1019.06 1019.34 1019.57 1019.79 1019.99 1020.22 1020.42 1020.64 1020.67 1020.77 1021.20 1021.19
1008.30 1008.18 1008.16 1007.64 1007.70 1007.95 1008.53 1009.12 1009.87 1010.09 1010.16 1010.42 1010.58 1010.60 1010.82 1010.97 1011.07 1011.67 1012.52 1013.52 1014.31 1015.01 1015.63 1016.00 1016.51 1017.12 1017.72 1018.12 1018.32 1018.41 1018.71 1018.84 1019.12 1019.37 1019.58 1019.79 1020.04 1020.28 1020.45 1020.68 1021.06 1021.44 1021.55 1021.64
Wind_Speed
18 8 17 25 23 18 16 17 12 14 9 11 16 15 18 12 12 12 12 12 13 13 10 5 8 10 11 11 11 12 11 12 10 9 9 8 8 8 9 12 14 13 12 13
11 12 13 18 18 12 9 16 13 3 9 10 14 15 11 12 15 14 13 11 12 9 8 6 6 6 8 9 10 12 13 13 11 8 8 8 9 9 8 8 9 12 13 13
13 3 12 17 15 13 12 14 16 6 7 10 4 12 15 10 3 4 6 6 3 3 3 1 2 3 2 3 6 8 10 11 10 11 8 8 9 8 8 9 9 11 13 14
7 3 13 9 17 14 12 7 8 8 11 7 9 3 10 12 7 8 9 7 6 5 5 4 4 5 6 6 5 4 5 8 9 10 10 12 9 9 8 9 7 9 13 13
3 5 16 16 16 15 3 8 9 8 8 1 7 6 10 11 11 10 9 8 6 5 3 4 5 4 6 6 6 5 5 3 5 7 10 9 11 9 7 7 12 11 9 11
4 4 6 2 9 6 11 12 8 4 2 5 10 8 11 11 12 12 8 8 5 4 4 5 4 3 5 6 6 6 6 4 4 3 6 9 11 11 8 8 7 7 6 6
2 3 6 2 11 5 4 13 5 4 5 4 3 5 5 9 14 12 10 7 4 3 3 4 5 5 5 6 7 6 7 6 5 6 5 5 7 9 10 10 7 9 6 6
2 4 3 3 3 4 7 3 3 6 8 7 5 8 3 10 8 12 5 3 2 2 4 4 5 5 6 7 8 8 7 6 6 6 6 5 5 4 5 7 8 7 7 7
5 4 2 2 2 8 5 4 3 3 3 3 8 5 5 8 12 10 5 3 2 0 3 4 6 6 7 8 8 8 8 7 6 7 6 7 7 8 7 9 8 6 8 7
4 6 6 5 4 4 2 6 3 2 3 5 6 5 4 16 15 10 5 3 2 1 3 5 5 6 6 6 6 7 7 7 7 7 6 6 6 6 7 7 8 10 10 11
5 3 5 5 4 6 3 2 2 4 3 4 4 4 8 15 16 10 4 2 2 2 4 5 4 5 5 5 6 6 7 8 8 8 7 7 7 7 7 7 8 8 9 10
4 6 4 3 2 4 6 6 8 4 5 1 4 5 10 16 13 7 3 4 2 1 2 2 2 3 4 5 6 7 8 9 9 9 9 9 9 9 9 10 10 10 10 9
4 4 5 3 2 4 5 8 7 0 4 3 4 6 7 12 8 4 1 4 4 1 1 0 1 3 4 5 6 6 7 8 8 9 8 8 9 9 10 10 10 10 10 10
2 2 4 3 5 3 5 10 10 5 3 4 6 4 11 10 8 5 3 5 3 2 2 2 1 1 4 5 5 6 7 7 8 8 9 9 9 10 9 9 9 10 9 10
3 3 1 1 1 2 4 7 13 8 8 4 2 4 10 9 4 2 2 2 2 2 1 1 1 2 3 5 5 6 6 7 7 7 7 7 7 8 9 9 9 10 11 10
1 2 2 2 1 6 8 10 9 13 14 14 13 13 10 9 1 2 2 2 5 3 2 2 1 1 2 4 4 4 4 5 5 6 5 6 7 9 10 10 11 12 11 12
4 4 2 1 1 5 10 16 17 10 8 14 10 7 5 1 2 4 3 4 4 4 3 3 2 2 3 4 3 4 5 5 6 6 7 8 8 10 9 9 11 10 10 9
5 4 2 2 2 4 3 3 3 18 9 14 10 8 5 6 1 2 3 3 3 3 3 4 3 3 3 4 4 5 4 5 6 7 7 8 7 11 10 8 9 8 7 9
4 4 2 3 4 10 6 4 5 8 5 16 14 11 8 2 3 5 5 1 0 2 4 4 3 4 3 3 3 5 5 6 7 7 8 8 9 10 8 8 8 7 8 8
3 3 3 2 3 4 5 4 2 4 4 4 5 5 5 7 5 5 8 5 5 4 5 5 5 4 4 3 3 6 6 7 5 5 7 8 8 8 7 6 7 6 7 6
5 4 8 6 4 6 5 7 1 3 4 5 1 2 5 7 3 9 9 7 5 5 5 5 5 4 4 4 7 7 7 6 5 6 7 7 7 7 6 5 4 4 6 6
9 6 5 5 4 8 4 4 4 4 3 3 4 2 3 2 6 8 7 8 7 6 7 7 6 6 5 5 7 8 7 6 7 7 8 6 5 5 4 4 4 4 5 5
6 7 4 8 4 4 2 2 3 2 4 7 4 1 2 6 7 9 8 7 7 7 6 6 7 7 6 6 7 7 6 8 8 8 7 6 6 6 4 4 3 3 3 3
8 7 4 4 5 11 8 7 1 3 3 4 3 3 2 5 7 9 9 8 7 7 8 8 10 8 7 6 7 9 8 7 8 8 7 6 6 5 4 3 2 2 2 2
2 9 9 10 10 5 6 7 6 2 4 2 4 5 4 5 7 10 10 9 8 9 9 9 9 10 9 8 8 8 7 7 7 7 6 6 5 4 4 4 4 3 5 5
8 8 8 5 3 5 6 7 2 3 3 3 5 5 5 6 7 10 9 9 10 10 10 9 10 11 10 9 9 8 7 7 7 6 5 4 4 3 3 4 5 8 7 6
Wind_Direction
183 176 192 203 208 218 228 201 225 207 143 204 223 238 233 194 226 246 253 253 251 249 253 294 279 268 265 256 249 249 246 239 235 238 233 194 209 221 234 236 248 227 229 224
173 196 216 201 211 212 253 184 187 135 156 214 219 237 236 235 238 246 256 268 268 279 286 283 291 267 264 262 256 250 248 240 236 235 243 201 211 225 231 228 232 251 245 227
180 230 203 232 194 192 205 196 185 191 171 231 270 239 225 206 265 245 237 241 233 223 234 285 54 47 41 360 317 282 271 273 256 260 255 254 212 231 213 214 218 225 234 249
188 119 182 213 201 182 199 208 173 157 178 214 198 228 177 165 183 182 164 153 136 142 127 102 51 44 39 27 12 342 286 271 264 259 259 260 251 237 234 244 238 227 226 225
90 196 193 217 183 196 132 157 167 181 213 274 195 253 122 164 176 166 150 138 129 120 93 82 60 40 42 24 10 359 3 336 279 259 248 253 251 258 250 251 250 249 240 227
29 1 352 29 40 114 144 133 132 136 185 239 202 225 169 179 182 161 153 150 135 104 82 61 61 33 31 21 9 360 351 14 4 330 278 257 267 266 257 253 263 266 260 255
350 22 310 336 89 30 217 164 135 175 191 235 103 206 356 155 151 164 150 144 110 110 64 28 20 356 358 356 355 352 354 347 354 353 340 313 283 273 276 273 259 257 252 248
120 118 7 312 103 144 166 216 258 195 188 166 160 219 128 131 159 119 134 133 139 84 30 18 358 343 346 346 348 344 344 339 349 345 335 324 307 280 278 269 275 280 272 272
145 86 22 158 175 139 164 227 26 339 34 219 174 150 147 148 166 162 153 179 159 61 3 354 345 351 350 352 349 343 343 345 353 348 343 354 354 350 333 324 312 305 304 307
101 107 127 131 197 79 326 129 165 169 204 225 172 187 149 176 175 185 180 185 170 292 348 348 354 7 4 3 359 1 2 0 358 352 355 358 360 357 353 351 347 340 331 327
124 95 146 166 207 189 152 184 241 306 290 297 164 128 95 169 166 164 164 174 197 298 340 342 4 11 14 19 19 18 16 18 13 6 1 6 6 1 3 8 357 357 344 341
28 89 150 159 77 325 315 247 225 261 161 38 305 93 142 142 129 131 140 177 182 195 319 357 2 14 29 26 28 23 17 20 14 10 14 18 19 13 17 18 12 10 6 4
160 142 134 181 211 195 226 220 240 244 5 214 291 110 182 152 160 195 197 179 185 202 261 137 3 34 31 28 26 23 24 19 14 17 22 31 33 29 30 24 20 23 24 28
303 167 296 343 61 80 197 212 205 167 183 198 236 109 183 183 201 240 169 203 182 184 182 42 67 60 42 37 25 20 25 23 25 25 25 28 32 34 40 41 38 38 42 49
282 182 235 341 40 199 234 214 206 202 218 221 62 230 161 170 282 279 58 142 190 219 225 355 17 47 40 35 29 20 24 23 29 35 36 34 54 54 49 49 59 62 57 54
147 122 86 247 227 248 256 243 224 220 232 245 262 275 280 277 15 282 245 211 222 222 208 211 179 88 59 43 32 22 12 28 43 50 51 54 55 66 62 54 57 58 64 63
196 150 195 251 226 279 260 233 216 209 213 218 228 246 182 146 257 325 275 222 230 225 192 189 174 118 79 76 53 49 34 30 49 51 47 58 59 65 63 70 69 63 60 67
185 152 150 298 258 242 77 85 204 217 218 218 233 242 225 270 341 222 223 215 214 191 181 184 168 135 110 94 81 82 76 67 67 66 64 65 65 72 68 55 60 64 60 62
282 165 181 259 238 298 227 187 181 171 222 223 232 244 258 257 158 207 177 166 137 175 168 151 117 115 92 85 95 96 94 86 77 73 72 69 72 77 70 67 66 69 71 67
141 278 242 80 275 266 58 126 203 210 150 105 204 224 235 160 226 133 161 153 156 160 162 165 151 128 127 101 106 101 89 80 71 73 76 78 78 77 70 70 69 76 80 76
177 194 224 227 267 296 127 133 351 237 99 94 116 244 205 207 13 114 136 150 163 160 158 152 142 132 113 109 104 120 106 90 91 91 86 80 82 90 95 97 113 121 111 112
186 189 199 207 225 253 129 137 232 55 90 22 341 299 244 238 131 145 154 157 160 157 160 168 152 128 115 127 136 131 114 117 107 103 99 108 118 107 112 116 105 106 104 97
212 218 185 213 214 92 152 358 31 56 352 352 342 38 239 169 181 176 169 171 170 164 170 166 138 145 142 142 139 136 138 135 132 125 123 130 118 109 111 109 105 93 67 60
227 207 241 198 230 235 228 204 231 89 61 4 326 291 244 220 189 179 176 174 167 175 177 171 156 156 151 154 150 150 155 152 147 141 133 133 127 121 111 100 62 58 58 60
16 164 221 244 262 255 241 205 176 165 106 306 275 267 258 243 197 191 187 182 178 175 182 181 171 164 159 160 164 171 164 164 153 146 142 133 133 128 110 68 43 83 53 24
207 227 223 243 6 257 58 77 85 282 352 310 287 266 244 244 222 196 192 188 178 183 181 176 176 167 164 169 178 174 169 174 163 159 156 150 147 146 137 137 115 65 74 71